Satellite: NOAA-11 Catalog number: 19531 Epoch time: 07179.16363832 Element set: 706 Inclination: 098.8123 deg RA of node: 268.1910 deg Eccentricity: 0.0011710 Arg of perigee: 004.2828 deg Mean anomaly: 355.8450 deg Mean motion: 14.14846444 rev/day Decay rate: -2.2e-07 rev/day^2 Epoch rev: 96770 Checksum: 297
Satellite: NOAA-12 Catalog number: 21263 Epoch time: 07179.18237649 Element set: 202 Inclination: 098.7508 deg RA of node: 176.4040 deg Eccentricity: 0.0013776 Arg of perigee: 077.0505 deg Mean anomaly: 283.2239 deg Mean motion: 14.25539527 rev/day Decay rate: 7.4e-07 rev/day^2 Epoch rev: 83781 Checksum: 313
Satellite: MET-3/5 Catalog number: 21655 Epoch time: 07178.96008355 Element set: 0335 Inclination: 082.5552 deg RA of node: 355.3317 deg Eccentricity: 0.0013151 Arg of perigee: 176.3162 deg Mean anomaly: 183.8055 deg Mean motion: 13.17011476 rev/day Decay rate: 5.1e-07 rev/day^2 Epoch rev: 76282 Checksum: 291
Satellite: MET-2/21 Catalog number: 22782 Epoch time: 07178.71007669 Element set: 0862 Inclination: 082.5481 deg RA of node: 033.5674 deg Eccentricity: 0.0021639 Arg of perigee: 203.3644 deg Mean anomaly: 156.6545 deg Mean motion: 13.83618448 rev/day Decay rate: 8.0e-08 rev/day^2 Epoch rev: 69797 Checksum: 336
Satellite: OKEAN-4 Catalog number: 23317 Epoch time: 07179.78929728 Element set: 301 Inclination: 082.5393 deg RA of node: 285.7086 deg Eccentricity: 0.0021297 Arg of perigee: 210.5124 deg Mean anomaly: 149.4876 deg Mean motion: 14.82513384 rev/day Decay rate: -1.3e-07 rev/day^2 Epoch rev: 68577 Checksum: 329
Satellite: NOAA-14 Catalog number: 23455 Epoch time: 07179.47419064 Element set: 686 Inclination: 098.9894 deg RA of node: 245.7201 deg Eccentricity: 0.0010304 Arg of perigee: 071.5420 deg Mean anomaly: 288.6877 deg Mean motion: 14.13720361 rev/day Decay rate: -1.65e-06 rev/day^2 Epoch rev: 64423 Checksum: 314
Satellite: SICH-1 Catalog number: 23657 Epoch time: 07178.75732793 Element set: 0103 Inclination: 082.5281 deg RA of node: 067.6196 deg Eccentricity: 0.0022761 Arg of perigee: 205.3561 deg Mean anomaly: 154.6515 deg Mean motion: 14.81495385 rev/day Decay rate: 1.39e-06 rev/day^2 Epoch rev: 63759 Checksum: 323
Satellite: NOAA-15 Catalog number: 25338 Epoch time: 07179.47919138 Element set: 47 Inclination: 098.5293 deg RA of node: 175.8431 deg Eccentricity: 0.0010608 Arg of perigee: 003.0625 deg Mean anomaly: 357.0631 deg Mean motion: 14.24650301 rev/day Decay rate: -2.9e-07 rev/day^2 Epoch rev: 47429 Checksum: 300
Satellite: RESURS Catalog number: 25394 Epoch time: 07178.74712520 Element set: 0686 Inclination: 098.4381 deg RA of node: 232.8588 deg Eccentricity: 0.0001767 Arg of perigee: 126.0445 deg Mean anomaly: 234.0898 deg Mean motion: 14.24139308 rev/day Decay rate: -7.0e-08 rev/day^2 Epoch rev: 46585 Checksum: 322
Satellite: FENGYUN1 Catalog number: 25730 Epoch time: 07179.51039162 Element set: 156 Inclination: 098.6861 deg RA of node: 162.9460 deg Eccentricity: 0.0021898 Arg of perigee: 094.8105 deg Mean anomaly: 265.5538 deg Mean motion: 14.07541415 rev/day Decay rate: 6.93e-06 rev/day^2 Epoch rev: 41906 Checksum: 315
Satellite: OKEAN-0 Catalog number: 25860 Epoch time: 07178.55411363 Element set: 88 Inclination: 097.7299 deg RA of node: 180.3177 deg Eccentricity: 0.0001504 Arg of perigee: 041.1249 deg Mean anomaly: 319.0063 deg Mean motion: 14.73460109 rev/day Decay rate: 2.9e-07 rev/day^2 Epoch rev: 42702 Checksum: 283
Satellite: NOAA-16 Catalog number: 26536 Epoch time: 07179.45315646 Element set: 460 Inclination: 099.1152 deg RA of node: 156.5902 deg Eccentricity: 0.0011158 Arg of perigee: 138.1413 deg Mean anomaly: 222.0616 deg Mean motion: 14.12434372 rev/day Decay rate: -2.62e-06 rev/day^2 Epoch rev: 34869 Checksum: 290
Satellite: NOAA-17 Catalog number: 27453 Epoch time: 07179.48088010 Element set: 472 Inclination: 098.5796 deg RA of node: 248.5123 deg Eccentricity: 0.0012664 Arg of perigee: 064.7827 deg Mean anomaly: 295.4662 deg Mean motion: 14.23889662 rev/day Decay rate: 3.9e-07 rev/day^2 Epoch rev: 26032 Checksum: 336
Satellite: NOAA-18 Catalog number: 28654 Epoch time: 07179.45664572 Element set: 9 Inclination: 098.8283 deg RA of node: 120.5505 deg Eccentricity: 0.0013456 Arg of perigee: 234.9167 deg Mean anomaly: 125.0722 deg Mean motion: 14.11076147 rev/day Decay rate: 3.38e-06 rev/day^2 Epoch rev: 10844 Checksum: 305
/EX SB KEPS @ AMSAT $ORB07179.M Orbital Elements 07179.MISC
HR AMSAT ORBITAL ELEMENTS FOR MANNED AND MISCELLANEOUS SATELLITES FROM WA5QGD FORT WORTH,TX June 28, 2007 Send SUBSCRIBE KEPS/UNSUBSCRIBE KEPS to [email protected] only BID: ORB07179.M TO ALL RADIO AMATEURS BT
Satellite: HUBBLE Catalog number: 20580 Epoch time: 07178.25287105 Element set: 0906 Inclination: 028.4678 deg RA of node: 124.4861 deg Eccentricity: 0.0003773 Arg of perigee: 200.0918 deg Mean anomaly: 159.9523 deg Mean motion: 15.00254383 rev/day Decay rate: 2.91e-06 rev/day^2 Epoch rev: 74147 Checksum: 293
Satellite: UARS Catalog number: 21701 Epoch time: 07178.73995813 Element set: 0123 Inclination: 056.9759 deg RA of node: 268.1389 deg Eccentricity: 0.0089402 Arg of perigee: 209.2049 deg Mean anomaly: 150.3992 deg Mean motion: 15.48367151 rev/day Decay rate: 3.354e-05 rev/day^2 Epoch rev: 86738 Checksum: 337
Satellite: PO-34 Catalog number: 25520 Epoch time: 07178.96450752 Element set: 0767 Inclination: 028.4594 deg RA of node: 036.6205 deg Eccentricity: 0.0005031 Arg of perigee: 014.7670 deg Mean anomaly: 345.3074 deg Mean motion: 15.17013541 rev/day Decay rate: 3.37e-06 rev/day^2 Epoch rev: 47916 Checksum: 294
Satellite: ISS Catalog number: 25544 Epoch time: 07179.97526758 Element set: 484 Inclination: 051.6340 deg RA of node: 042.9810 deg Eccentricity: 0.0008202 Arg of perigee: 012.5239 deg Mean anomaly: 128.8413 deg Mean motion: 15.78453933 rev/day Decay rate: 1.4389e-04 rev/day^2 Epoch rev: 49263 Checksum: 317
Satellite: OO-38 Catalog number: 26063 Epoch time: 07178.62235941 Element set: 945 Inclination: 100.2266 deg RA of node: 183.1716 deg Eccentricity: 0.0037122 Arg of perigee: 129.9055 deg Mean anomaly: 230.5404 deg Mean motion: 14.35809165 rev/day Decay rate: -6.0e-08 rev/day^2 Epoch rev: 38854 Checksum: 298
Satellite: UWE-1 Catalog number: 28892 Epoch time: 07178.70084607 Element set: 0783 Inclination: 098.1317 deg RA of node: 075.1371 deg Eccentricity: 0.0018574 Arg of perigee: 079.6546 deg Mean anomaly: 280.6723 deg Mean motion: 14.59516528 rev/day Decay rate: 6.8e-07 rev/day^2 Epoch rev: 08874 Checksum: 344
Satellite: CO-58 Catalog number: 28895 Epoch time: 07178.26785523 Element set: 760 Inclination: 098.1339 deg RA of node: 074.9288 deg Eccentricity: 0.0019085 Arg of perigee: 080.8972 deg Mean anomaly: 279.4372 deg Mean motion: 14.59562795 rev/day Decay rate: 2.2e-07 rev/day^2 Epoch rev: 8856 Checksum: 376
Satellite: NCUBE2 Catalog number: 28897 Epoch time: 07178.68427408 Element set: 0289 Inclination: 098.1312 deg RA of node: 075.2925 deg Eccentricity: 0.0018311 Arg of perigee: 080.6860 deg Mean anomaly: 279.6413 deg Mean motion: 14.59726143 rev/day Decay rate: 9.9e-07 rev/day^2 Epoch rev: 08090 Checksum: 332
Satellite: NMARS Catalog number: 29662 Epoch time: 07126.39603970 Element set: 263 Inclination: 051.6121 deg RA of node: 302.3682 deg Eccentricity: 0.0004459 Arg of perigee: 252.1654 deg Mean anomaly: 110.7411 deg Mean motion: 16.47981436 rev/day Decay rate: 7.031946e-02 rev/day^2 Epoch rev: 2165 Checksum: 289
Satellite: FCAL Catalog number: 29667 Epoch time: 07178.96057501 Element set: 0199 Inclination: 051.6337 deg RA of node: 037.7809 deg Eccentricity: 0.0014106 Arg of perigee: 031.6768 deg Mean anomaly: 328.5084 deg Mean motion: 15.88555221 rev/day Decay rate: 9.948e-05 rev/day^2 Epoch rev: 02971 Checksum: 336
Satellite: FALCON Catalog number: 30776 Epoch time: 07178.95061633 Element set: 0085 Inclination: 035.4325 deg RA of node: 147.4118 deg Eccentricity: 0.0000783 Arg of perigee: 238.9994 deg Mean anomaly: 121.0650 deg Mean motion: 15.02726730 rev/day Decay rate: 1.53e-06 rev/day^2 Epoch rev: 01667 Checksum: 288
Satellite: MAST Catalog number: 31126 Epoch time: 07178.79163089 Element set: 67 Inclination: 098.0822 deg RA of node: 251.5385 deg Eccentricity: 0.0094920 Arg of perigee: 353.4260 deg Mean anomaly: 006.5646 deg Mean motion: 14.53348779 rev/day Decay rate: 3.93e-06 rev/day^2 Epoch rev: 1039 Checksum: 312
Satellite: CAPE1 Catalog number: 31130 Epoch time: 07178.86483419 Element set: 0059 Inclination: 098.0831 deg RA of node: 251.4420 deg Eccentricity: 0.0102543 Arg of perigee: 353.7052 deg Mean anomaly: 006.2835 deg Mean motion: 14.51861526 rev/day Decay rate: -4.7e-07 rev/day^2 Epoch rev: 01016 Checksum: 269
/EX
participants (1)
-
Ray Hoad